Muskegon, MI

8:57 PM EST on November 19, 2019 (GMT -0500)
Muskegon County

Weather History for KMKG - September, 2019

Change the Weather History Date:

Saturday, September 14, 2019

  Actual Average Record
Temperature  
Mean Temperature 66 °F 63 °F  
Max Temperature 70 °F 72 °F 87 °F (1897)
Min Temperature 61 °F 53 °F 34 °F (1919)
Degree Days  
Heating Degree Days 0 4  
Month to date heating degree days 20 37  
Since 1 July heating degree days 24 67  
Cooling Degree Days 1 2  
Month to date cooling degree days 33 39  
Year to date cooling degree days 578 546  
Growing Degree Days 16 (Base 50)    
Moisture  
Dew Point 53 °F    
Average Humidity 66    
Maximum Humidity 78    
Minimum Humidity 53    
Precipitation  
Precipitation 0.00 in 0.13 in 1.68 in (1961)
Month to date precipitation 3.56 1.75  
Year to date precipitation 30.69 22.33  
Snow  
Snow 0.00 in 0.00 in - ()
Month to date snowfall 0.0 0.0  
Since 1 July snowfall 0.0 0.0  
Since 1 September snowfall 0.0 0.0  
Snow Depth 0.00 in    
Sea Level Pressure  
Sea Level Pressure 30.15 in    
Wind  
Wind Speed 9 mph (WSW)    
Max Wind Speed 17 mph    
Max Gust Speed 28 mph    
Visibility 10 miles    
Events Rain    
T = Trace of Precipitation, MM = Missing Value Source: NWS Daily Summary

Daily Weather History Graph

Daily Weather History Graph

Search for Another Location

Airport or City:

Astronomy

Sep. 14, 2019 Rise Set
Actual Time 7:23 AM EDT 7:57 PM EDT
Civil Twilight 6:54 AM EDT 8:25 PM EDT
Nautical Twilight 6:20 AM EDT 8:59 PM EDT
Astronomical Twilight 5:45 AM EDT 9:34 PM EDT
Moon 8:38 PM EDT (9/14) 7:35 AM EDT (9/14)
Length of Visible Light 13h 31m
Length of Day
12h 33m
Full, 100% of the Moon is Illuminated
Sep 14
Full
Sep 21
Last Quarter
Sep 28
New
Oct 5
First Quarter
Oct 13
Full

Hourly Weather History & Observations

Time (EDT) Temp. Dew Point Humidity Pressure Visibility Wind Dir Wind Speed Gust Speed Precip Events Conditions
12:55 AM 66.0 °F 53.1 °F 63% 30.08 in 10.0 mi WSW 9.2 mph 19.6 mph 0.00 in Rain Light Rain
1:55 AM 66.0 °F 54.0 °F 65% 30.09 in 10.0 mi West 16.1 mph 28.8 mph 0.00 in Rain Light Rain
2:55 AM 66.0 °F 53.1 °F 63% 30.08 in 10.0 mi West 11.5 mph - 0.00 in Rain Light Rain
3:55 AM 64.0 °F 53.1 °F 67% 30.09 in 10.0 mi West 9.2 mph - 0.00 in Rain Light Rain
4:55 AM 64.0 °F 52.0 °F 65% 30.10 in 10.0 mi WNW 8.1 mph 18.4 mph 0.00 in Rain Light Rain
5:55 AM 63.0 °F 50.0 °F 63% 30.12 in 10.0 mi WNW 6.9 mph - 0.00 in   Overcast
6:55 AM 63.0 °F 50.0 °F 63% 30.15 in 10.0 mi West 9.2 mph - N/A   Mostly Cloudy
7:55 AM 62.1 °F 48.9 °F 62% 30.17 in 10.0 mi West 11.5 mph - N/A   Scattered Clouds
8:55 AM 64.9 °F 50.0 °F 58% 30.18 in 10.0 mi West 10.4 mph - N/A   Scattered Clouds
9:55 AM 66.0 °F 50.0 °F 56% 30.19 in 10.0 mi West 8.1 mph - N/A   Scattered Clouds
10:55 AM 66.0 °F 50.0 °F 56% 30.20 in 10.0 mi West 9.2 mph - N/A   Scattered Clouds
11:55 AM 66.9 °F 50.0 °F 54% 30.20 in 10.0 mi West 11.5 mph - N/A   Scattered Clouds
12:55 PM 69.1 °F 51.1 °F 53% 30.21 in 10.0 mi SW 11.5 mph 17.3 mph N/A   Scattered Clouds
1:55 PM 68.0 °F 53.1 °F 59% 30.20 in 10.0 mi SW 12.7 mph - N/A   Scattered Clouds
2:55 PM 68.0 °F 53.1 °F 59% 30.18 in 10.0 mi SW 13.8 mph - N/A   Scattered Clouds
3:55 PM 69.1 °F 53.1 °F 57% 30.18 in 10.0 mi SSW 15.0 mph 21.9 mph N/A   Scattered Clouds
4:55 PM 70.0 °F 55.0 °F 59% 30.17 in 10.0 mi SW 11.5 mph - N/A   Scattered Clouds
5:55 PM 69.1 °F 55.0 °F 61% 30.16 in 10.0 mi SSW 9.2 mph - N/A   Scattered Clouds
6:55 PM 68.0 °F 55.9 °F 65% 30.14 in 10.0 mi South 6.9 mph - N/A   Scattered Clouds
7:55 PM 64.9 °F 55.9 °F 73% 30.14 in 10.0 mi SSE 4.6 mph - N/A   Scattered Clouds
8:55 PM 63.0 °F 55.9 °F 78% 30.13 in 10.0 mi ESE 3.5 mph - N/A   Mostly Cloudy
9:55 PM 63.0 °F 55.9 °F 78% 30.13 in 10.0 mi SE 3.5 mph - N/A   Mostly Cloudy
10:55 PM 63.0 °F 55.9 °F 78% 30.14 in 10.0 mi Calm Calm - N/A   Mostly Cloudy
11:55 PM 63.0 °F 55.9 °F 78% 30.13 in 10.0 mi SE 5.8 mph - N/A   Scattered Clouds